Year,Month,Day,Hour,Minute,Value (Times are PST for temperature in C)
2016,08,22,00,00,14.60
2016,08,22,00,01,14.60
2016,08,22,00,02,14.60
2016,08,22,00,03,14.60
2016,08,22,00,04,14.60
2016,08,22,00,05,14.60
2016,08,22,00,06,14.60
2016,08,22,00,07,14.60
2016,08,22,00,08,14.60
2016,08,22,00,09,14.60
2016,08,22,00,10,14.60
2016,08,22,00,11,14.60
2016,08,22,00,12,14.60
2016,08,22,00,13,14.60
2016,08,22,00,14,14.50
2016,08,22,00,15,14.50
2016,08,22,00,16,14.50
2016,08,22,00,17,14.50
2016,08,22,00,18,14.50
2016,08,22,00,19,14.50
2016,08,22,00,20,14.40
2016,08,22,00,21,14.40
2016,08,22,00,22,14.40
2016,08,22,00,23,14.40
2016,08,22,00,24,14.40
2016,08,22,00,25,14.40
2016,08,22,00,26,14.40
2016,08,22,00,27,14.40
2016,08,22,00,28,14.40
2016,08,22,00,29,14.40
2016,08,22,00,30,14.40
2016,08,22,00,31,14.40
2016,08,22,00,32,14.50
2016,08,22,00,33,14.50
2016,08,22,00,34,14.50
2016,08,22,00,35,14.50
2016,08,22,00,36,14.50
2016,08,22,00,37,14.50
2016,08,22,00,38,14.50
2016,08,22,00,39,14.50
2016,08,22,00,40,14.50
2016,08,22,00,41,14.50
2016,08,22,00,42,14.50
2016,08,22,00,43,14.50
2016,08,22,00,44,14.50
2016,08,22,00,45,14.40
2016,08,22,00,46,14.40
2016,08,22,00,47,14.40
2016,08,22,00,48,14.40
2016,08,22,00,49,14.40
2016,08,22,00,50,14.40
2016,08,22,00,51,14.40
2016,08,22,00,52,14.40
2016,08,22,00,53,14.40
2016,08,22,00,54,14.40
2016,08,22,00,55,14.40
2016,08,22,00,56,14.30
2016,08,22,00,57,14.30
2016,08,22,00,58,14.30
2016,08,22,00,59,14.30
2016,08,22,01,00,14.30
2016,08,22,01,01,14.30
2016,08,22,01,02,14.30
2016,08,22,01,03,14.30
2016,08,22,01,04,14.30
2016,08,22,01,05,14.20
2016,08,22,01,06,14.20
2016,08,22,01,07,14.20
2016,08,22,01,08,14.20
2016,08,22,01,09,14.20
2016,08,22,01,10,14.20
2016,08,22,01,11,14.20
2016,08,22,01,12,14.20
2016,08,22,01,13,14.20
2016,08,22,01,14,14.10
2016,08,22,01,15,14.10
2016,08,22,01,16,14.10
2016,08,22,01,17,14.10
2016,08,22,01,18,14.10
2016,08,22,01,19,14.10
2016,08,22,01,20,14.10
2016,08,22,01,21,14.10
2016,08,22,01,22,14.10
2016,08,22,01,23,14.10
2016,08,22,01,24,14.10
2016,08,22,01,25,14.00
2016,08,22,01,26,14.00
2016,08,22,01,27,14.00
2016,08,22,01,28,13.90
2016,08,22,01,29,13.90
2016,08,22,01,30,13.90
2016,08,22,01,31,13.90
2016,08,22,01,32,13.90
2016,08,22,01,33,13.90
2016,08,22,01,34,13.80
2016,08,22,01,35,13.80
2016,08,22,01,36,13.80
2016,08,22,01,37,13.80
2016,08,22,01,38,13.80
2016,08,22,01,39,13.80
2016,08,22,01,40,13.80
2016,08,22,01,41,13.80
2016,08,22,01,42,13.70
2016,08,22,01,43,13.70
2016,08,22,01,44,13.70
2016,08,22,01,45,13.70
2016,08,22,01,46,13.70
2016,08,22,01,47,13.70
2016,08,22,01,48,13.70
2016,08,22,01,49,13.60
2016,08,22,01,50,13.60
2016,08,22,01,51,13.60
2016,08,22,01,52,13.60
2016,08,22,01,53,13.60
2016,08,22,01,54,13.60
2016,08,22,01,55,13.60
2016,08,22,01,56,13.60
2016,08,22,01,57,13.60
2016,08,22,01,58,13.60
2016,08,22,01,59,13.60
2016,08,22,02,00,13.60
2016,08,22,02,01,13.60
2016,08,22,02,02,13.60
2016,08,22,02,03,13.60
2016,08,22,02,04,13.60
2016,08,22,02,05,13.60
2016,08,22,02,06,13.60
2016,08,22,02,07,13.60
2016,08,22,02,08,13.60
2016,08,22,02,09,13.60
2016,08,22,02,10,13.60
2016,08,22,02,11,13.60
2016,08,22,02,12,13.60
2016,08,22,02,13,13.60
2016,08,22,02,14,13.60
2016,08,22,02,15,13.60
2016,08,22,02,16,13.60
2016,08,22,02,17,13.60
2016,08,22,02,18,13.60
2016,08,22,02,19,13.60
2016,08,22,02,20,13.60
2016,08,22,02,21,13.60
2016,08,22,02,22,13.50
2016,08,22,02,23,13.50
2016,08,22,02,24,13.50
2016,08,22,02,25,13.50
2016,08,22,02,26,13.50
2016,08,22,02,27,13.50
2016,08,22,02,28,13.50
2016,08,22,02,29,13.50
2016,08,22,02,30,13.50
2016,08,22,02,31,13.40
2016,08,22,02,32,13.40
2016,08,22,02,33,13.40
2016,08,22,02,34,13.40
2016,08,22,02,35,13.40
2016,08,22,02,36,13.40
2016,08,22,02,37,13.40
2016,08,22,02,38,13.40
2016,08,22,02,39,13.40
2016,08,22,02,40,13.40
2016,08,22,02,41,13.40
2016,08,22,02,42,13.40
2016,08,22,02,43,13.40
2016,08,22,02,44,13.30
2016,08,22,02,45,13.30
2016,08,22,02,46,13.30
2016,08,22,02,47,13.30
2016,08,22,02,48,13.30
2016,08,22,02,49,13.30
2016,08,22,02,50,13.20
2016,08,22,02,51,13.20
2016,08,22,02,52,13.20
2016,08,22,02,53,13.20
2016,08,22,02,54,13.10
2016,08,22,02,55,13.10
2016,08,22,02,56,13.10
2016,08,22,02,57,13.00
2016,08,22,02,58,13.00
2016,08,22,02,59,12.90
2016,08,22,03,00,12.90
2016,08,22,03,01,12.90
2016,08,22,03,02,12.90
2016,08,22,03,03,12.90
2016,08,22,03,04,12.90
2016,08,22,03,05,12.90
2016,08,22,03,06,12.90
2016,08,22,03,07,12.80
2016,08,22,03,08,12.90
2016,08,22,03,09,12.90
2016,08,22,03,10,12.90
2016,08,22,03,11,12.90
2016,08,22,03,12,12.90
2016,08,22,03,13,12.90
2016,08,22,03,14,12.90
2016,08,22,03,15,12.90
2016,08,22,03,16,12.90
2016,08,22,03,17,13.00
2016,08,22,03,18,13.00
2016,08,22,03,19,13.00
2016,08,22,03,20,13.00
2016,08,22,03,21,13.00
2016,08,22,03,22,13.00
2016,08,22,03,23,13.00
2016,08,22,03,24,13.10
2016,08,22,03,25,13.10
2016,08,22,03,26,13.00
2016,08,22,03,27,13.00
2016,08,22,03,28,13.10
2016,08,22,03,29,13.10
2016,08,22,03,30,13.00
2016,08,22,03,31,13.00
2016,08,22,03,32,13.00
2016,08,22,03,33,13.00
2016,08,22,03,34,12.90
2016,08,22,03,35,12.90
2016,08,22,03,36,12.90
2016,08,22,03,37,12.90
2016,08,22,03,38,12.80
2016,08,22,03,39,12.80
2016,08,22,03,40,12.80
2016,08,22,03,41,12.70
2016,08,22,03,42,12.70
2016,08,22,03,43,12.70
2016,08,22,03,44,12.70
2016,08,22,03,45,12.70
2016,08,22,03,46,12.60
2016,08,22,03,47,12.60
2016,08,22,03,48,12.60
2016,08,22,03,49,12.60
2016,08,22,03,50,12.50
2016,08,22,03,51,12.50
2016,08,22,03,52,12.50
2016,08,22,03,53,12.50
2016,08,22,03,54,12.40
2016,08,22,03,55,12.40
2016,08,22,03,56,12.40
2016,08,22,03,57,12.30
2016,08,22,03,58,12.30
2016,08,22,03,59,12.30
2016,08,22,04,00,12.20
2016,08,22,04,01,12.20
2016,08,22,04,02,12.10
2016,08,22,04,03,12.10
2016,08,22,04,04,12.10
2016,08,22,04,05,12.00
2016,08,22,04,06,12.00
2016,08,22,04,07,12.00
2016,08,22,04,08,11.90
2016,08,22,04,09,11.90
2016,08,22,04,10,11.80
2016,08,22,04,11,11.80
2016,08,22,04,12,11.80
2016,08,22,04,13,11.80
2016,08,22,04,14,11.70
2016,08,22,04,15,11.70
2016,08,22,04,16,11.70
2016,08,22,04,17,11.60
2016,08,22,04,18,11.60
2016,08,22,04,19,11.50
2016,08,22,04,20,11.50
2016,08,22,04,21,11.40
2016,08,22,04,22,11.40
2016,08,22,04,23,11.40
2016,08,22,04,24,11.30
2016,08,22,04,25,11.30
2016,08,22,04,26,11.30
2016,08,22,04,27,11.20
2016,08,22,04,28,11.20
2016,08,22,04,29,11.20
2016,08,22,04,30,11.20
2016,08,22,04,31,11.10
2016,08,22,04,32,11.10
2016,08,22,04,33,11.00
2016,08,22,04,34,11.00
2016,08,22,04,35,11.00
2016,08,22,04,36,10.90
2016,08,22,04,37,10.90
2016,08,22,04,38,10.90
2016,08,22,04,39,10.90
2016,08,22,04,40,10.80
2016,08,22,04,41,10.80
2016,08,22,04,42,10.80
2016,08,22,04,43,10.80
2016,08,22,04,44,10.80
2016,08,22,04,45,10.70
2016,08,22,04,46,10.70
2016,08,22,04,47,10.70
2016,08,22,04,48,10.70
2016,08,22,04,49,10.60
2016,08,22,04,50,10.60
2016,08,22,04,51,10.60
2016,08,22,04,52,10.50
2016,08,22,04,53,10.50
2016,08,22,04,54,10.50
2016,08,22,04,55,10.40
2016,08,22,04,56,10.40
2016,08,22,04,57,10.40
2016,08,22,04,58,10.40
2016,08,22,04,59,10.40
2016,08,22,05,00,10.40
2016,08,22,05,01,10.40
2016,08,22,05,02,10.40
2016,08,22,05,03,10.30
2016,08,22,05,04,10.30
2016,08,22,05,05,10.30
2016,08,22,05,06,10.30
2016,08,22,05,07,10.30
2016,08,22,05,08,10.30
2016,08,22,05,09,10.30
2016,08,22,05,10,10.30
2016,08,22,05,11,10.20
2016,08,22,05,12,10.20
2016,08,22,05,13,10.20
2016,08,22,05,14,10.20
2016,08,22,05,15,10.20
2016,08,22,05,16,10.10
2016,08,22,05,17,10.10
2016,08,22,05,18,10.10
2016,08,22,05,19,10.10
2016,08,22,05,20,10.10
2016,08,22,05,21,10.00
2016,08,22,05,22,10.00
2016,08,22,05,23,10.00
2016,08,22,05,24,9.90
2016,08,22,05,25,9.90
2016,08,22,05,26,9.90
2016,08,22,05,27,9.90
2016,08,22,05,28,9.90
2016,08,22,05,29,9.90
2016,08,22,05,30,9.90
2016,08,22,05,31,9.90
2016,08,22,05,32,9.90
2016,08,22,05,33,9.80
2016,08,22,05,34,9.80
2016,08,22,05,35,9.80
2016,08,22,05,36,9.80
2016,08,22,05,37,9.80
2016,08,22,05,38,9.70
2016,08,22,05,39,9.70
2016,08,22,05,40,9.70
2016,08,22,05,41,9.70
2016,08,22,05,42,9.70
2016,08,22,05,43,9.70
2016,08,22,05,44,9.70
2016,08,22,05,45,9.70
2016,08,22,05,46,9.60
2016,08,22,05,47,9.60
2016,08,22,05,48,9.60
2016,08,22,05,49,9.60
2016,08,22,05,50,9.60
2016,08,22,05,51,9.60
2016,08,22,05,52,9.60
2016,08,22,05,53,9.60
2016,08,22,05,54,9.50
2016,08,22,05,55,9.50
2016,08,22,05,56,9.50
2016,08,22,05,57,9.50
2016,08,22,05,58,9.40
2016,08,22,05,59,9.40
2016,08,22,06,00,9.40
2016,08,22,06,01,9.40
2016,08,22,06,02,9.40
2016,08,22,06,03,9.40
2016,08,22,06,04,9.40
2016,08,22,06,05,9.40
2016,08,22,06,06,9.40
2016,08,22,06,07,9.40
2016,08,22,06,08,9.30
2016,08,22,06,09,9.30
2016,08,22,06,10,9.30
2016,08,22,06,11,9.30
2016,08,22,06,12,9.30
2016,08,22,06,13,9.30
2016,08,22,06,14,9.30
2016,08,22,06,15,9.20
2016,08,22,06,16,9.20
2016,08,22,06,17,9.20
2016,08,22,06,18,9.20
2016,08,22,06,19,9.20
2016,08,22,06,20,9.20
2016,08,22,06,21,9.20
2016,08,22,06,22,9.10
2016,08,22,06,23,9.10
2016,08,22,06,24,9.10
2016,08,22,06,25,9.10
2016,08,22,06,26,9.10
2016,08,22,06,27,9.10
2016,08,22,06,28,9.10
2016,08,22,06,29,9.10
2016,08,22,06,30,9.10
2016,08,22,06,31,9.10
2016,08,22,06,32,9.10
2016,08,22,06,33,9.10
2016,08,22,06,34,9.10
2016,08,22,06,35,9.10
2016,08,22,06,36,9.10
2016,08,22,06,37,9.10
2016,08,22,06,38,9.10
2016,08,22,06,39,9.10
2016,08,22,06,40,9.10
2016,08,22,06,41,9.10
2016,08,22,06,42,9.10
2016,08,22,06,43,9.10
2016,08,22,06,44,9.10
2016,08,22,06,45,9.10
2016,08,22,06,46,9.10
2016,08,22,06,47,9.10
2016,08,22,06,48,9.10
2016,08,22,06,49,9.10
2016,08,22,06,50,9.10
2016,08,22,06,51,9.10
2016,08,22,06,52,9.10
2016,08,22,06,53,9.10
2016,08,22,06,54,9.10
2016,08,22,06,55,9.10
2016,08,22,06,56,9.10
2016,08,22,06,57,9.10
2016,08,22,06,58,9.10
2016,08,22,06,59,9.10
2016,08,22,07,00,9.10
2016,08,22,07,01,9.20
2016,08,22,07,02,9.20
2016,08,22,07,03,9.20
2016,08,22,07,04,9.20
2016,08,22,07,05,9.20
2016,08,22,07,06,9.20
2016,08,22,07,07,9.20
2016,08,22,07,08,9.20
2016,08,22,07,09,9.20
2016,08,22,07,10,9.20
2016,08,22,07,11,9.20
2016,08,22,07,12,9.20
2016,08,22,07,13,9.20
2016,08,22,07,14,9.20
2016,08,22,07,15,9.20
2016,08,22,07,16,9.20
2016,08,22,07,17,9.20
2016,08,22,07,18,9.20
2016,08,22,07,19,9.20
2016,08,22,07,20,9.20
2016,08,22,07,21,9.30
2016,08,22,07,22,9.30
2016,08,22,07,23,9.30
2016,08,22,07,24,9.30
2016,08,22,07,25,9.30
2016,08,22,07,26,9.40
2016,08,22,07,27,9.40
2016,08,22,07,28,9.40
2016,08,22,07,29,9.40
2016,08,22,07,30,9.40
2016,08,22,07,31,9.40
2016,08,22,07,32,9.50
2016,08,22,07,33,9.50
2016,08,22,07,34,9.50
2016,08,22,07,35,9.50
2016,08,22,07,36,9.60
2016,08,22,07,37,9.60
2016,08,22,07,38,9.60
2016,08,22,07,39,9.70
2016,08,22,07,40,9.70
2016,08,22,07,41,9.70
2016,08,22,07,42,9.80
2016,08,22,07,43,9.80
2016,08,22,07,44,9.90
2016,08,22,07,45,10.00
2016,08,22,07,46,10.00
2016,08,22,07,47,10.10
2016,08,22,07,48,10.20
2016,08,22,07,49,10.30
2016,08,22,07,50,10.40
2016,08,22,07,51,10.50
2016,08,22,07,52,10.60
2016,08,22,07,53,10.70
2016,08,22,07,54,10.70
2016,08,22,07,55,10.80
2016,08,22,07,56,10.80
2016,08,22,07,57,10.90
2016,08,22,07,58,10.90
2016,08,22,07,59,11.00
2016,08,22,08,00,11.10
2016,08,22,08,01,11.20
2016,08,22,08,02,11.30
2016,08,22,08,03,11.30
2016,08,22,08,04,11.40
2016,08,22,08,05,11.50
2016,08,22,08,06,11.60
2016,08,22,08,07,11.60
2016,08,22,08,08,11.70
2016,08,22,08,09,11.80
2016,08,22,08,10,11.90
2016,08,22,08,11,12.00
2016,08,22,08,12,12.10
2016,08,22,08,13,12.20
2016,08,22,08,14,12.30
2016,08,22,08,15,12.40
2016,08,22,08,16,12.60
2016,08,22,08,17,12.70
2016,08,22,08,18,12.80
2016,08,22,08,19,12.90
2016,08,22,08,20,13.00
2016,08,22,08,21,13.10
2016,08,22,08,22,13.20
2016,08,22,08,23,13.30
2016,08,22,08,24,13.40
2016,08,22,08,25,13.50
2016,08,22,08,26,13.50
2016,08,22,08,27,13.60
2016,08,22,08,28,13.60
2016,08,22,08,29,13.60
2016,08,22,08,30,13.60
2016,08,22,08,31,13.60
2016,08,22,08,32,13.70
2016,08,22,08,33,13.70
2016,08,22,08,34,13.70
2016,08,22,08,35,13.70
2016,08,22,08,36,13.70
2016,08,22,08,37,13.80
2016,08,22,08,38,13.80
2016,08,22,08,39,13.80
2016,08,22,08,40,13.90
2016,08,22,08,41,13.90
2016,08,22,08,42,13.90
2016,08,22,08,43,13.90
2016,08,22,08,44,13.90
2016,08,22,08,45,14.00
2016,08,22,08,46,14.00
2016,08,22,08,47,14.10
2016,08,22,08,48,14.20
2016,08,22,08,49,14.30
2016,08,22,08,50,14.40
2016,08,22,08,51,14.40
2016,08,22,08,52,14.50
2016,08,22,08,53,14.50
2016,08,22,08,54,14.60
2016,08,22,08,55,14.60
2016,08,22,08,56,14.70
2016,08,22,08,57,14.80
2016,08,22,08,58,14.80
2016,08,22,08,59,14.80
2016,08,22,09,00,14.80
2016,08,22,09,01,14.90
2016,08,22,09,02,14.90
2016,08,22,09,03,14.90
2016,08,22,09,04,15.00
2016,08,22,09,05,15.00
2016,08,22,09,06,15.10
2016,08,22,09,07,15.20
2016,08,22,09,08,15.30
2016,08,22,09,09,15.40
2016,08,22,09,10,15.50
2016,08,22,09,11,15.60
2016,08,22,09,12,15.70
2016,08,22,09,13,15.70
2016,08,22,09,14,15.80
2016,08,22,09,15,15.90
